Regional Weather Roundup
Issued by NWS

Home | Current Version | Previous Version | Graphics & Text | Print | Product List | Glossary Off
Versions: 1 2 3 4 5 6 7 8 9 10 11 12 13 14 15 16 17 18 19 20 21 22 23 24 25 26 27 28 29 30 31 32 33 34 35 36 37 38 39 40 41 42 43 44 45 46 47 48 49 50

000
ASUS43 KLSX 160907
RWRMO

WEATHER SUMMARY FOR MISSOURI
NATIONAL WEATHER SERVICE SPRINGFIELD MO
400 AM CDT WED APR 16 2014

NOTE: "FAIR" INDICATES FEW OR NO CLOUDS BELOW 12,000 FEET WITH NO
       SIGNIFICANT WEATHER AND/OR OBSTRUCTIONS TO VISIBILITY.
       CURRENT SKY AND/OR WEATHER CONDITIONS ARE NOT AVAILABLE FOR
       CHILLICOTHE AND FARMINGTON.

MOZ001>031-035>038-043-044-053-054-161000-
...NORTHERN AND WESTERN MISSOURI...

CITY           SKY/WX    TMP DP  RH WIND       PRES   REMARKS
KANSAS CTY INT PTCLDY    45  24  43 S17G25    29.95F
KANSAS C DTWN  CLEAR     47  24  40 S17       29.98F
LEE`S SUMMIT   PTCLDY    44  24  45 S14G23    29.99F
ST JOSEPH      CLEAR     45  27  49 S18       29.93F
CHILLICOTHE      N/A     43  24  47 S9        30.02F
KIRKSVILLE     CLEAR     36  25  64 S12       30.05S WCI  28

$$
MOZ066>068-077>081-088>096-101>105-161000-
...SOUTHWEST MISSOURI...

CITY           SKY/WX    TMP DP  RH WIND       PRES   REMARKS
SPRINGFIELD    CLEAR     41  25  53 SE15      30.08F
JOPLIN         CLEAR     44  26  49 S13       30.04F

$$
MOZ032>034-039>042-045>050-055>058-069>072-161000-
...CENTRAL MISSOURI...

CITY           SKY/WX    TMP DP  RH WIND       PRES   REMARKS
COLUMBIA       CLEAR     38  23  55 SE14      30.11F WCI  30
JEFFERSON CITY CLEAR     40  23  50 E10       30.14S
ROLLA          PTCLDY    37  25  61 S14       30.14R WCI  28
SEDALIA        CLEAR     43  25  49 S15       30.07F
WHITEMAN AFB   FAIR      41  23  48 S13       30.04F
OSAGE BEACH    CLEAR     39  21  48 SE6       30.13F

$$
MOZ051-052-059>065-161000-
...EAST CENTRAL MISSOURI...

CITY           SKY/WX    TMP DP  RH WIND       PRES   REMARKS
ST LOUIS INTL  PTCLDY    40  22  48 S13       30.21S
SPIRIT OF STL  PTCLDY    38  21  50 VRB6      30.20S
ST CHARLES     CLEAR     35  26  69 S8        30.21R WCI  29

$$
MOZ072>076-082>087-097>100-106>115-161000-
...SOUTH CENTRAL AND SOUTHEAST MISSOURI...

CITY           SKY/WX    TMP DP  RH WIND       PRES   REMARKS
CAPE GIRARDEAU CLEAR     35  27  72 SE8       30.27R WCI  29
FARMINGTON     MOCLDY    34  21  60 S7        30.23S WCI  28
POPLAR BLUFF   CLEAR     36  31  82 MISG      30.24S
WEST PLAINS    CLEAR     35  26  69 SE6       30.18S

$$



USA.gov is the U.S. government's official web portal to all federal, state and local government web resources and services.